Rbgn^[z[y[W
メイン
   新天体発見情報
     Comet C/2022 Y1 (Hogan)
投稿するにはまず登録を

スレッド表示 | 新しいものから 前のトピック | 次のトピック | 下へ
投稿者 スレッド
佐藤裕久
投稿日時: 2023-1-31 21:32
モデレータ
登録日: 2005-6-12
居住地: 日本
投稿: 2396
オンライン
Comet C/2022 Y1 (Hogan)

Joshua Hogan (Jet推進研究所: JPL)の通報によると、12月24日UT、Mt Lemmon 
サーベイの1.5-m 反射望遠鏡で得た画像から彗星を発見した。
集光した6"のコマと、幅4".5ほどに6 "の尾がある。
小惑星センターのPCCP webpageに公表後、 佐藤英貴氏(東京都文京区,12月26.3日, 
120-秒露出10枚のスタック, 0.51-m f/6.8 アストログラフ, Mayhill近郊, ニュー
メキシコ州, 米国, 遠隔操作:強く集光した8"の外側のコマが見えるが尾はない。
4".9の円形範囲で測定した光度は19.3等であった)らCCD観測者によって彗星状と観測
された。

彗星機能の報告は次のとおり、

OC   Date        Reporter           Coma    Tail    PA          Exposures
I52  2022-12-25  K. Wierzchos       5"        9"    290-340
H06  2022-12-26  H. Sato            8"                           10x120s

発見位置は次のとおり、

     2022 UT             R.A. (2000) Decl.       Mag.   Observer
     Dec. 24.34157    7 46 38.57   +20 21 58.0   19.7   Hogan
          24.34722    7 46 38.37   +20 21 55.7   19.5     "
          24.35287    7 46 38.16   +20 21 53.7   19.7     "
          24.35854    7 46 38.00   +20 21 51.7   19.8     "

MPCの楕円軌道要素、位置推算表は次のとおり、

Orbital elements:
    C/2022 Y1 (Hogan)                                                           
Epoch 2022 Dec. 7.0 TT = JDT 2459920.5                                          
T 2022 Nov. 27.22742 TT                                 Rudenko                 
q   2.9577008            (2000.0)            P               Q                  
n   0.02219227     Peri.  174.74015     -0.18963068     -0.93134940             
a  12.5410771      Node   285.91504     +0.88863735     -0.02815500             
e   0.7641589      Incl.   18.85906     +0.41756900     -0.36303662             
P  44.4                                                                         
From 90 observations 2022 Nov. 5-2023 Jan. 12, mean residual 0".4.              
                                                                                
Ephemeris:
Date    TT    R. A. (2000) Decl.     Delta      r    Elong.  Phase   m1
2022 12 13    07 51 40.8 +21 31 19   2.1015  2.9609   144.8    11.1  19.3
...
2022 12 28    07 44 33.5 +19 59 49   2.0212  2.9699   161.4     6.1  19.3
...
2023 01 05    07 39 29.7 +19 11 53   2.0031  2.9770   170.4     3.2  19.2
...
2023 01 11    07 35 26.8 +18 36 38   2.0015  2.9834   176.2     1.3  19.3
2023 01 12    07 34 46.0 +18 30 50   2.0022  2.9846   176.7     1.1  19.3
2023 01 13    07 34 05.3 +18 25 03   2.0033  2.9858   176.8     1.1  19.3
...
2023 01 19    07 30 04.7 +17 51 00   2.0158  2.9934   172.1     2.6  19.3
...
2023 01 27    07 25 09.3 +17 07 29   2.0486  3.0049   163.2     5.4  19.3
...
2023 02 11    07 18 26.8 +15 53 04   2.1565  3.0306   146.8    10.3  19.5

(MPEC 2023-A37、CBET 5205)

スレッド表示 | 新しいものから 前のトピック | 次のトピック | トップ

投稿するにはまず登録を
 
© 1999 Tsutomu Seki.